Regional Weather Roundup
Issued by NWS Northern Indiana

Home | Current Version | Previous Version | Graphics & Text | Print | Product List | Glossary On
Versions: 1 2 3 4 5 6 7 8 9 10 11 12 13 14 15 16 17 18 19 20 21 22 23 24 25 26 27 28 29 30 31 32 33 34 35 36 37 38 39 40 41 42 43 44 45 46 47 48 49 50
000
ASUS43 KIWX 261310
RWRIWX

KIWX WEATHER ROUNDUP
NATIONAL WEATHER SERVICE NORTHERN INDIANA
900 AM EDT THU MAR 26 2015

NOTE: "FAIR" INDICATES FEW OR NO CLOUDS BELOW 12,000 FEET WITH NO
SIGNIFICANT WEATHER AND/OR OBSTRUCTIONS TO VISIBILITY.

* THESE STATIONS ARE NOT UNDER NWS QUALITY CONTROL. THEY ALSO MAY NOT
  REPORT WEATHER SUCH AS PRECIPITATION OR FOG.

INZ001>027-261400-
NORTHERN INDIANA

CITY           SKY/WX    TMP DP  RH WIND       PRES   REMARKS
VALPARAISO     CLOUDY    35  27  72 NW6       29.97R WCI  30
MICHIGAN CITY* CLOUDY    34  27  75 NW8       29.97R WCI  27
LAPORTE*       CLOUDY    36  31  80 NW6       29.96R
KNOX*            N/A     34  23  64 NW7       29.95S WCI  28
SOUTH BEND     CLOUDY    36  30  79 NW9       29.95R
ELKHART*       CLOUDY    36  27  69 NW6       29.94S
GOSHEN         CLOUDY    36  29  75 NW8       29.93R
MONTICELLO*    CLOUDY    35  33  92 NW6       29.95R WCI  30
LOGANSPORT*    CLOUDY    34  32  93 N6        29.95R WCI  29
ROCHESTER*     CLOUDY    37  34  87 NW8       29.94S
WARSAW*        CLOUDY    34  32  93 NW6       29.93S WCI  29
ANGOLA*        PTSUNNY   36  28  75 N3        29.90F
FORT WAYNE     LGT RAIN  36  34  92 N7        29.93R FOG
HUNTINGTON*    LGT RAIN  34  31  90 NW6       29.92S WCI  29
PERU/GRISSOM   LGT RAIN  35  33  95 NW7       29.93R FOG     WCI  29
MARION*        LGT RAIN  37  37 100 N6        29.93R

$$
INZ028>050-261400-
CENTRAL INDIANA

CITY           SKY/WX    TMP DP  RH WIND       PRES   REMARKS
LAFAYETTE      CLOUDY    34  32  92 NW6       29.97R WCI  29
KOKOMO*        CLOUDY    36  32  87 N12       29.93S
MUNCIE*        LGT RAIN  39  37  92 N9        29.91R FOG
INDIANAPOLIS   CLOUDY    39  36  89 N13       29.91R

$$
MIZ043>046-050>051-056>058-064>065-071>073-077>080-261400-
SOUTHWEST LOWER MICHIGAN

CITY           SKY/WX    TMP DP  RH WIND       PRES   REMARKS
BATTLE CREEK   CLOUDY    35  29  78 W6        29.91S WCI  30
BENTON HARBOR  CLOUDY    35  29  78 NW8       29.95R WCI  29
COLDWATER*     CLOUDY    35  29  79 CALM      29.91S
HILLSDALE*     CLOUDY    36  32  84 NW5       29.89S
HOLLAND        CLOUDY    37  27  67 W7        29.93R
GRAND RAPIDS   CLOUDY    36  27  69 W8        29.90S
KALAMAZOO      CLOUDY    36  28  73 W6        29.92R
STURGIS*       CLOUDY    36  30  80 NW5       29.91S
THREE RIVERS*  CLOUDY    36  30  80 NW7       29.92S

$$
OHZ001>008-015>018-024>025-261400-
NORTHWEST OHIO

CITY           SKY/WX    TMP DP  RH WIND       PRES   REMARKS
WAUSEON*       SNOW      32  32 100 NW5       29.91R VSB 1/4 WCI  27
DEFIANCE       LGT SNOW  34  32  92 NW5       29.92R VSB 3/4 WCI  30
FINDLAY        RAIN      38  36  92 N8        29.88R FOG
TOLEDO EXPRESS SNOW      32  32 100 CALM      29.89F VSB 1/4
TOLEDO METCALF SNOW      33  31  92 CALM      29.91F VSB 1/2
LIMA           LGT RAIN  39  36  89 N12       29.88R FOG

$$
AND FOR LAKE MICHIGAN COASTAL AND OPEN LAKE BUOY OBSERVATIONS

STATION/POSITION TEMP    WIND        PRES    VSBY  WAVE
                 AIR SEA DIR/SP/G                  HT/PER
                 (F)     (DEG/KT/KT) (MB)    (MI)  (FT/S)
CALUMET HARBOR    36     280/  8/ 10 1014.2R
MICHIGAN CITY     34     270/ 11/ 12   N/A
BURNS HARBOR      36     310/ 11/ 13 1015.2F
SAINT JOSEPH      34     280/  8/ 10 1015.2R

$$
&&



USA.gov is the U.S. government's official web portal to all federal, state and local government web resources and services.